Caribou, ME

5:49 AM EDT on April 24, 2018 (GMT -0400)
Caribou Municipal

Weather History for KCAR - December, 2012

Change the Weather History Date:

Tuesday, December 11, 2012

  Actual Average Record
Temperature  
Mean Temperature 22 °F 20 °F  
Max Temperature 33 °F 28 °F 56 °F (1969)
Min Temperature 11 °F 13 °F -16 °F (1958)
Degree Days  
Heating Degree Days 43 45  
Month to date heating degree days 421 468  
Since 1 July heating degree days 2253 2613  
Cooling Degree Days 0 0  
Month to date cooling degree days 0 0  
Year to date cooling degree days 279 180  
Moisture  
Dew Point 21 °F    
Average Humidity 80    
Maximum Humidity 92    
Minimum Humidity 68    
Precipitation  
Precipitation 0.01 in 0.11 in 1.66 in (1993)
Month to date precipitation 1.23 1.27  
Year to date precipitation 36.77 36.49  
Snow  
Snow T in 0.70 in 6.20 in (1994)
Month to date snowfall 3.8 7.3  
Since 1 July snowfall 5.4 19.5  
Snow Depth 2.00 in    
Sea Level Pressure  
Sea Level Pressure 29.73 in    
Wind  
Wind Speed 6 mph (West)    
Max Wind Speed 16 mph    
Max Gust Speed 20 mph    
Visibility 9 miles    
Events Rain , Snow    
T = Trace of Precipitation, MM = Missing Value Source: NWS Daily Summary

Daily Weather History Graph

Daily Weather History Graph

Search for Another Location

Airport or City:

Astronomy

Dec. 11, 2012 Rise Set
Actual Time 7:07 AM EST 3:43 PM EST
Civil Twilight 6:32 AM EST 4:18 PM EST
Nautical Twilight 5:53 AM EST 4:57 PM EST
Astronomical Twilight 5:16 AM EST 5:34 PM EST
Moon 4:54 AM EST (12/11) 2:22 PM EST (12/11)
Length of Visible Light 9h 46m
Length of Day
8h 35m
Waning Crescent, 4% of the Moon is Illuminated
Dec 11
Waning Crescent
Dec 13
New
Dec 20
First Quarter
Dec 28
Full
Jan 4
Last Quarter

Hourly Weather History & Observations

Time (EST) Temp. Windchill Dew Point Humidity Pressure Visibility Wind Dir Wind Speed Gust Speed Precip Events Conditions
12:05 AM 30.2 °F - 28.4 °F 93% 29.44 in 7.0 mi Calm Calm - 0.00 in Rain Light Freezing Rain
12:33 AM 30.2 °F 26.7 °F 28.4 °F 93% 29.44 in 10.0 mi SW 3.5 mph - 0.01 in   Overcast
12:54 AM 30.0 °F 24.1 °F 28.0 °F 92% 29.47 in 10.0 mi South 5.8 mph - 0.01 in   Overcast
1:23 AM 30.2 °F - 28.4 °F 93% 29.43 in 10.0 mi Calm Calm - 0.00 in   Overcast
1:54 AM 30.0 °F 26.5 °F 28.0 °F 92% 29.47 in 10.0 mi WSW 3.5 mph - 0.00 in   Overcast
2:26 AM 30.2 °F 25.4 °F 28.4 °F 93% 29.45 in 10.0 mi West 4.6 mph - N/A   Overcast
2:54 AM 30.0 °F 25.2 °F 28.0 °F 92% 29.50 in 10.0 mi West 4.6 mph - N/A   Overcast
3:54 AM 32.0 °F 26.4 °F 28.9 °F 88% 29.51 in 10.0 mi WNW 5.8 mph - N/A   Overcast
4:54 AM 33.1 °F 26.9 °F 28.0 °F 82% 29.55 in 10.0 mi West 6.9 mph - N/A   Overcast
5:46 AM 32.0 °F 24.2 °F 28.4 °F 87% 29.54 in 10.0 mi WNW 9.2 mph - N/A   Overcast
5:54 AM 32.0 °F 25.6 °F 28.0 °F 85% 29.57 in 10.0 mi NW 6.9 mph - N/A   Overcast
6:33 AM 30.2 °F 23.4 °F 26.6 °F 86% 29.57 in 9.0 mi NNW 6.9 mph - 0.00 in Snow Light Snow
6:56 AM 30.2 °F 25.4 °F 26.6 °F 86% 29.59 in 10.0 mi Variable 4.6 mph - N/A   Overcast
7:54 AM 28.9 °F 25.2 °F 26.1 °F 89% 29.66 in 10.0 mi WNW 3.5 mph - N/A   Overcast
8:39 AM 28.4 °F 19.1 °F 24.8 °F 86% 29.65 in 4.0 mi NW 10.4 mph - 0.00 in Snow Light Snow
8:54 AM 28.0 °F 19.3 °F 24.1 °F 85% 29.69 in 4.0 mi NW 9.2 mph - 0.00 in Snow Light Snow
8:58 AM 28.4 °F 18.5 °F 24.8 °F 86% 29.66 in 1.8 mi NW 11.5 mph 17.3 mph 0.00 in Snow Light Snow
9:13 AM 28.4 °F 19.1 °F 24.8 °F 86% 29.66 in 3.0 mi WNW 10.4 mph 18.4 mph 0.00 in Snow Light Snow
9:54 AM 28.0 °F 19.3 °F 23.0 °F 81% 29.70 in 10.0 mi WNW 9.2 mph - 0.00 in   Overcast
10:23 AM 26.6 °F 16.2 °F 23.0 °F 86% 29.68 in 6.0 mi NNW 11.5 mph - 0.00 in   Overcast
10:54 AM 26.1 °F 14.0 °F 21.0 °F 81% 29.73 in 10.0 mi NW 15.0 mph 19.6 mph 0.00 in   Overcast
11:54 AM 25.0 °F 14.8 °F 19.9 °F 81% 29.76 in 10.0 mi WNW 10.4 mph - N/A   Mostly Cloudy
12:54 PM 26.1 °F 18.4 °F 19.0 °F 75% 29.79 in 10.0 mi West 6.9 mph - N/A   Overcast
1:54 PM 25.0 °F 14.2 °F 18.0 °F 75% 29.84 in 10.0 mi West 11.5 mph 17.3 mph N/A   Overcast
2:54 PM 24.1 °F 16.0 °F 16.0 °F 71% 29.86 in 10.0 mi West 6.9 mph - N/A   Overcast
3:29 PM 21.2 °F 13.6 °F 15.8 °F 80% 29.83 in 10.0 mi WNW 5.8 mph - N/A   Partly Cloudy
3:54 PM 21.0 °F 16.2 °F 15.1 °F 78% 29.89 in 10.0 mi WNW 3.5 mph - N/A   Clear
4:54 PM 18.0 °F 12.7 °F 14.0 °F 84% 29.93 in 10.0 mi West 3.5 mph - N/A   Clear
5:54 PM 17.1 °F 11.7 °F 12.0 °F 81% 29.96 in 10.0 mi West 3.5 mph - N/A   Clear
6:54 PM 16.0 °F 10.4 °F 12.0 °F 84% 29.99 in 10.0 mi West 3.5 mph - N/A   Clear
7:54 PM 14.0 °F - 10.0 °F 84% 30.02 in 10.0 mi Calm Calm - N/A   Mostly Cloudy
8:43 PM 15.8 °F 10.2 °F 10.4 °F 79% 29.99 in 10.0 mi WSW 3.5 mph - N/A   Scattered Clouds
8:54 PM 12.9 °F 6.9 °F 10.0 °F 88% 30.04 in 10.0 mi WSW 3.5 mph - N/A   Clear
9:54 PM 12.0 °F 2.7 °F 8.1 °F 84% 30.06 in 10.0 mi West 5.8 mph - N/A   Clear
10:54 PM 10.9 °F 0.2 °F 7.0 °F 84% 30.08 in 10.0 mi WSW 6.9 mph - N/A   Clear
11:15 PM 10.4 °F 4.0 °F 8.6 °F 92% 30.04 in 10.0 mi WSW 3.5 mph - N/A   Mostly Cloudy
11:54 PM 12.0 °F 5.9 °F 8.1 °F 84% 30.09 in 10.0 mi West 3.5 mph - N/A   Overcast